Location: Pic du Midi - T1M
(42.9366°N, 0.1426°E)
Time: 01:17:11
(UTC+01:00)

DX 1 - Pass Details

Date: 21 September 2021
Orbit: 618 x 631 km, 98.4° (Epoch: 15 October)

Event Time Altitude Azimuth Distance (km) Brightness Sun altitude
Rises 19:48:18 0° 32° (NNE) 2,895 ? -9.9°
Reaches altitude 10° 19:51:20 10° 55° (NE) 1,984 ? -10.5°
Maximum altitude 19:53:54 15° 92° (E) 1,654 ? -10.9°
Enters shadow 19:54:13 15° 97° (E) 1,659 ? -11.0°
